Location: Erfurt
(50.9688°N, 11.0193°E)
Time: 07:25:07
(UTC+02:00)

ISS - Visible Passes

Search period start: 29 March 2017 00:00
Search period end: 08 April 2017 00:00
Orbit: 399 x 409 km, 51.6° (Epoch: 29 March)

Date Brightness Start Highest point End Pass type
(mag) Time Alt. Az. Time Alt. Az. Time Alt. Az.
29 Mar -3.2 21:42:31 10° SW 21:45:05 43° SSW 21:45:05 43° SSW visible
30 Mar -3.1 20:50:24 10° SW 20:53:25 35° SSE 20:55:19 18° E visible
30 Mar -1.9 22:26:26 10° W 22:28:00 26° W 22:28:00 26° W visible
31 Mar -4.0 21:34:03 10° WSW 21:37:19 78° SSE 21:38:03 50° E visible
31 Mar -0.6 23:10:34 10° W 23:10:43 11° W 23:10:43 11° W visible
01 Apr -3.7 20:41:44 10° WSW 20:44:57 57° SSE 20:47:57 11° E visible
01 Apr -2.9 22:18:07 10° W 22:20:37 48° WNW 22:20:37 48° WNW visible
02 Apr -3.8 21:25:41 10° W 21:28:57 83° N 21:30:25 30° ENE visible
02 Apr -1.1 23:02:13 10° W 23:03:03 17° W 23:03:03 17° W visible
03 Apr -3.9 20:33:14 10° WSW 20:36:31 84° SSE 20:39:48 10° E visible
03 Apr -3.6 22:09:46 10° W 22:12:46 71° NW 22:12:46 71° NW visible
04 Apr -3.8 21:17:18 10° W 21:20:34 77° N 21:22:25 24° E visible
04 Apr -1.5 22:53:48 10° W 22:55:04 21° W 22:55:04 21° W visible
05 Apr -3.7 20:24:49 10° W 20:28:05 80° N 20:31:22 10° E visible
05 Apr -4.0 22:01:20 10° WNW 22:04:37 82° SSW 22:04:40 81° S visible
06 Apr -3.8 21:08:51 10° W 21:12:08 84° N 21:14:15 20° E visible
06 Apr -1.7 22:45:24 10° W 22:46:54 22° W 22:46:54 22° W visible
07 Apr -3.6 21:52:52 10° W 21:56:04 55° SSW 21:56:28 51° S visible
